Regional Weather Roundup
Issued by NWS

Home | Current Version | Previous Version | Text Only | Print | Product List | Glossary On
Versions: 1 2 3 4 5 6 7 8 9 10 11 12 13 14 15 16 17 18 19 20 21 22 23 24 25 26 27 28 29 30 31 32 33 34 35 36 37 38 39 40 41 42 43 44 45 46 47 48 49 50
000
ASHW40 PHFO 260230
RWRHI

WEATHER ROUNDUP FOR HAWAII
NATIONAL WEATHER SERVICE HONOLULU HI
400 PM HST SUN JAN 25 2015

THIS IS AN AUTOMATED REPORT THAT HAS NOT BEEN QUALITY CONTROLLED.

NOTE..."FAIR" INDICATES FEW OR NO CLOUDS BELOW 12,000 FEET WITH NO
SIGNIFICANT WEATHER AND/OR OBSTRUCTIONS TO VISIBILITY.

* - THESE SITES REPORT LIMITED FIELDS

HIZ001>004-260300-
KAUAI-NIIHAU-

CITY           SKY/WX    TMP DP  RH WIND       PRES   REMARKS
LIHUE APT      PTSUNNY   74  56  53 NE18G24   30.02S
PORT ALLEN*      N/A     75 N/A N/A E21G28      N/A
POIPU*           N/A     75 N/A N/A NE8G17      N/A
PRINCEVILLE*     N/A     70 N/A N/A MISG        N/A
KOKOLE POINT*    N/A     75 N/A N/A MISG        N/A
MOLOAA DAIRY*  NOT AVBL
WAIMEA HTS*    NOT AVBL
PUU OPAE*      NOT AVBL
PUU LUA*       NOT AVBL
MAKAHA RIDGE*  NOT AVBL
$$

HIZ005>011-260300-
OAHU-

CITY           SKY/WX    TMP DP  RH WIND       PRES   REMARKS
HONOLULU       PTSUNNY   74  62  66 NE17G25   29.96S
KALAELOA       CLOUDY    76  61  59 VRB6G23   29.98R
KANEOHE MCB    CLOUDY    72  61  68 NE16G22   30.00S
WHEELER FIELD  PTSUNNY   71  60  69 N10       30.00S
BELLOWS*         N/A    N/A N/A N/A NE20        N/A
KAHUKU*          N/A    N/A N/A N/A NE5         N/A
WHEELER*       NOT AVBL
WAIANAE HARBOR NOT AVBL
DILLINGHAM*      N/A     72  63  73 MISG        N/A
KAHUKU TRN*      N/A     66  59  77 E6G12       N/A
KAWAILOA*        N/A     66  61  82 NE12G21     N/A
KII*             N/A     72  61  68 NE13G18     N/A
MAKUA RANGE*     N/A     73  63  68 E17G26      N/A
OAHU FOREST NW NOT AVBL
SCHOFIELD BRK*   N/A     68  61  77 MISG        N/A
SCHOFIELD S*   NOT AVBL
WAIANAE VLY*   NOT AVBL
KUAOKALA*      NOT AVBL
HONOULIUULI*   NOT AVBL
MOKUOLOE IS*   NOT AVBL
PALEHUA*       NOT AVBL
WAIAWA PHB*    NOT AVBL
$$

HIZ012>013-260300-
MOLOKAI-

CITY           SKY/WX    TMP DP  RH WIND       PRES   REMARKS
MOLOKAI AIRPT  LGT RAIN  66  66 100 N16G28    29.98S
KALAUPAPA      NOT AVBL
MAKAPULAPAI*   NOT AVBL
MOLOKAI 1*     NOT AVBL
PUU ALII*        N/A     56  56 100 E1G8        N/A
$$

HIZ016-260300-
KAHOOLAWE-

CITY           SKY/WX    TMP DP  RH WIND       PRES   REMARKS
KAHOOLAWE*     NOT AVBL
HAKIOAWA*        N/A     67  66  98 MISG      30.38R
HONOKANAIA*      N/A     76  64  67 VRB21G36  29.95R
KANELOA*         N/A     73  66  78 MISG      29.16S
KEALIALALO*    NOT AVBL
LUA MAKIKA*    NOT AVBL
$$

HIZ014>015-260300-
LANAI-

CITY           SKY/WX    TMP DP  RH WIND       PRES   REMARKS
LANAI CITY     PTSUNNY   68  64  88 NE18G37   29.99S FOG
LANAI 1*       NOT AVBL
$$

HIZ017>028-260300-
MAUI-

CITY           SKY/WX    TMP DP  RH WIND       PRES   REMARKS
KAHULUI        RAIN      68  66  94 NE16G24   29.99R FOG
KAPALUA-W MAUI LGT RAIN  68  66  94 N20G30    29.98
HANA AIRPORT   LGT RAIN  68  66  94 VRB3      30.02S VSB 1/2
HANA*            N/A     70 N/A N/A N7G20       N/A
HALEAKALA SUMM   N/A     52  10  19 N13G26      N/A
MAALAEA BAY*   NOT AVBL
HALEAKALA*     NOT AVBL
KAUPO GAP*     NOT AVBL
KULA 1*          N/A     61  55  81 W6          N/A
$$

HIZ023>026-260300-
BIG ISLAND OF HAWAII COAST AND LOWER SLOPES-

CITY           SKY/WX    TMP DP  RH WIND       PRES   REMARKS
KAILUA KONA    CLOUDY    80  69  69 N18       29.89S
HILO           LGT RAIN  71  69  93 E9        29.95S
HONOKAA*       NOT AVBL
KAWAIHAE MWT*    N/A     84 N/A N/A SW6         N/A
KAWAIHAE*        N/A     81 N/A N/A S6          N/A
SOUTH POINT*     N/A     68 N/A N/A NE13G21     N/A
UPOLU AIRPORT*   N/A    N/A N/A N/A NE22G28     N/A
KAMUELA*       NOT AVBL
HAKALAU*         N/A     56  55  98 N7          N/A
KALOKO-HONOKO*   N/A     81  68  65 VRB5G15   29.89R
PALI 2*          N/A    N/A N/A N/A N10G18      N/A
KEALAKOMO*       N/A     75  66  73 NE13G20     N/A
KAUPULEHU*     NOT AVBL
KAPAPALA*        N/A     66  65  95 CALM        N/A
LOWER KAHUKU*    N/A    N/A N/A N/A NE2G8       N/A
PUHE CS*       NOT AVBL
PUHO CS*         N/A     78  67  69 S2          N/A
PTA KEAMUKU*     N/A     66  61  82 CALM        N/A
WAIKOLOA*      NOT AVBL
$$

HIZ027>028-260300-
BIG ISLAND OF HAWAII INTERIOR AND SUMMMITS-

CITY           SKY/WX    TMP DP  RH WIND       PRES   REMARKS
BRADSHAW FIELD PTSUNNY   61  55  82 SW6       30.23R
MK VISITOR CEN   N/A      0   0 100 MISG        N/A
MAUNA KEA*       N/A     48   3  15 NW1         N/A
MAUNA LOA*       N/A     52  39  62 MISG        N/A
MAUNA LOA 1*   NOT AVBL
PTA KIPUKA*      N/A     59  59 100 NW7G14      N/A
PTA RANGE 17*    N/A     63  57  82 SW10G18     N/A
PTA WEST*        N/A     66  59  77 NW17G26     N/A
NENE CABIN*      N/A    N/A N/A N/A SE3G9       N/A
AHUMOA*        NOT AVBL
PTA PORTABLE*  NOT AVBL
PUU MALI*      NOT AVBL
$$

HIC003-260300-
NORTHWEST ISLANDS-

CITY           SKY/WX    TMP DP  RH WIND       PRES   REMARKS
MIDWAY ISLAND  SUNNY     72  61  68 S12       30.05F
MIDWAY NOS*    NOT AVBL
FRENCH FRIGATE NOT AVBL
$$

PHZ110>124-180-260300-
BUOY REPORTS

STATION/POSITION TIME  TEMP    WIND        PRES    WAVE   SWELL
                       AIR SEA DIR/SP/G            HT/PER HT/DIR
                 (UTC) (F)     (DEG/KT/KT) (MB)    (FT/S) (FT/D)
BUOY 51001       NOT AVBL
BUOY 51101       0200   70 73   60/ 14/ 17 1017.6F  10/13  10/290
BUOY 51100       0200   70 75   50/ 14/ 16 1016.5S
BUOY 51003       0200   76 78   60/ 14/ 16 1013.8S  11/13  10
BUOY 51004       0114   76 78   70/  6/  8 1012.0F   8/15   8/310
BARBERS PT BUOY  NOT AVBL
WAIMEA BAY BUOY  0200      75                N/A    10/13   8/310
KAILUA BAY BUOY  0200      76                N/A     7/11   3/340
LANAI BUOY       0200      77                N/A     4/14   3/290
BARBERS PT 2     0200      77                N/A     7/14   7/300
PAUWELA MAUI     0200      76                N/A     9/14   5/310
HILO             0200      77                N/A    10/14
KANEOHE BAY BUOY 0200      75                N/A     6/12   3/340
HANALEI KAUAI    NOT AVBL
KAHULUI HARBOR   0200   69 76   20/ 11/ 22 1015.4R
HONOLULU HARBOR  0200   71 75   50/ 12/ 19 1014.3S
KILO NALU        NOT AVBL
HILO HARBOR      0200   71      70/  7/ 13 1013.8R
MOKUOLOE         0200      75              1015.9S
NAWILIWILI       0200      76                N/A
WHOTS BUOY       NOT AVBL
BUOY 51028       NOT AVBL
$$

......................KEY........................................
  SKY/WX - SKY CONDITIONS/PRESENT WEATHER
  TMP    - TEMPERATURE IN FAHRENHEIT
  DWPT   - DEWPOINT IN FAHRENHEIT
  RH     - RELATIVE HUMIDITY IN PERCENT
  WIND   - DIRECTION AND SPEED /MPH FOR ISLANDS...KTS FOR BUOYS/
  PRES   - MEAN SEA LEVEL PRESSURE IN INCHES OF HG
  VSB    - VISIBILITY IN MILES
  HX     - HEAT INDEX
  WCI    - WIND CHILL INDEX
  VRB    - VARIABLE WIND DIRECTION
  N/A    - NOT AVAILABLE


USA.gov is the U.S. government's official web portal to all federal, state and local government web resources and services.